Regional Weather Roundup
Issued by NWS

Home | Current Version | Previous Version | Graphics & Text | Print | Product List | Glossary On
Versions: 1 2 3 4 5 6 7 8 9 10 11 12 13 14 15 16 17 18 19 20 21 22 23 24 25 26 27 28 29 30 31 32 33 34 35 36 37 38 39 40 41 42 43 44 45 46 47 48 49 50
000
ASUS43 KLMK 301310
RWRKY
KENTUCKY REGIONAL WEATHER ROUNDUP
NATIONAL WEATHER SERVICE LOUISVILLE KY
900 AM EDT THU MAR 30 2017

NOTE "FAIR" INDICATES FEW OR NO CLOUDS BELOW 12,000 FEET
WITH NO SIGNIFICANT WEATHER AND/OR OBSTRUCTIONS TO VISIBILITY.

KYZ001>023-026-027-061>063-070>075-301400-
WESTERN AND SOUTH CENTRAL KENTUCKY

CITY           SKY/WX    TMP DP  RH WIND       PRES   REMARKS
PADUCAH        CLOUDY    67  56  67 SW6       29.67R
HENDERSON      CLOUDY    66  55  68 SE9       29.66F
OWENSBORO      CLOUDY    67  58  72 SE10      29.72F
HOPKINSVILLE   CLOUDY    69  58  68 S8        29.72F
BOWLING GREEN  CLOUDY    69  57  65 S14       29.78F
GLASGOW        CLOUDY    67  56  67 S10G16    29.81F
$$

KYZ024-025-028>034-038-045-046-053-301400-
NORTH CENTRAL KENTUCKY

CITY           SKY/WX    TMP DP  RH WIND       PRES   REMARKS
LOUISVILLE/SDF CLOUDY    60  49  66 SE7       29.80R
LOUISVILLE/LOU CLOUDY    61  51  70 SE5       29.80S
FORT KNOX      CLOUDY    64  55  72 S10       29.77F
$$

KYZ035>037-039>044-047>052-055>060-089>105-301400-
NORTHEAST KENTUCKY

CITY           SKY/WX    TMP DP  RH WIND       PRES   REMARKS
LEXINGTON      CLOUDY    61  49  64 S15G22    29.85R
COVINGTON      CLOUDY    54  48  80 SE10      29.82F
FRANKFORT      CLOUDY    59  48  67 S7        29.82S
$$

KYZ054-064>069-076>088-106>120-301400-
SOUTHEAST KENTUCKY

CITY           SKY/WX    TMP DP  RH WIND       PRES   REMARKS
JACKSON        PTSUNNY   60  49  66 S3        29.91S
LONDON         CLOUDY    63  49  60 S6        29.91R
SOMERSET       CLOUDY    63  52  67 S3        29.90S
MIDDLESBORO    CLOUDY    59  55  86 CALM      29.95S
MONTICELLO     CLOUDY    68  56  65 E7        29.90S
$$




USA.gov is the U.S. government's official web portal to all federal, state and local government web resources and services.